Time,TemperatureF,DewpointF,PressureIn,WindDirection,WindDirectionDegrees,WindSpeedMPH,WindSpeedGustMPH,Humidity,HourlyPrecipIn,Conditions,Clouds,dailyrainin,SoftwareType,DateUTC
2013-04-03 00:03:00,37.0,13.0,30.34,North,7,0.0,0.0,37,0.00,,,0.00,,2013-04-03 04:03:00,
2013-04-03 00:12:00,37.0,13.0,30.34,North,7,0.0,0.0,37,0.00,,,0.00,,2013-04-03 04:12:00,
2013-04-03 00:23:00,37.0,13.0,30.34,North,7,0.0,0.0,37,0.00,,,0.00,,2013-04-03 04:23:00,
2013-04-03 00:33:00,37.0,13.0,30.34,NNE,30,0.0,0.0,37,0.00,,,0.00,,2013-04-03 04:33:00,
2013-04-03 00:43:00,37.0,13.0,30.34,NNE,30,0.0,0.0,37,0.00,,,0.00,,2013-04-03 04:43:00,
2013-04-03 00:53:00,37.0,13.0,30.34,North,8,0.0,0.0,37,0.00,,,0.00,,2013-04-03 04:53:00,
2013-04-03 01:02:00,36.0,12.0,30.35,North,8,0.0,0.0,37,0.00,,,0.00,,2013-04-03 05:02:00,
2013-04-03 01:12:00,36.0,12.0,30.35,North,8,0.0,0.0,37,0.00,,,0.00,,2013-04-03 05:12:00,
2013-04-03 01:22:00,36.0,12.0,30.35,North,8,0.0,0.0,37,0.00,,,0.00,,2013-04-03 05:22:00,
2013-04-03 01:32:00,36.0,13.0,30.35,North,8,0.0,0.0,38,0.00,,,0.00,,2013-04-03 05:32:00,
2013-04-03 01:42:00,36.0,13.0,30.35,North,8,0.0,0.0,38,0.00,,,0.00,,2013-04-03 05:42:00,
2013-04-03 01:52:00,35.0,13.0,30.35,North,8,0.0,0.0,39,0.00,,,0.00,,2013-04-03 05:52:00,
2013-04-03 02:02:00,35.0,13.0,30.35,North,8,0.0,0.0,39,0.00,,,0.00,,2013-04-03 06:02:00,
2013-04-03 02:12:00,35.0,13.0,30.35,North,8,0.0,0.0,39,0.00,,,0.00,,2013-04-03 06:12:00,
2013-04-03 02:22:00,35.0,13.0,30.35,North,8,0.0,0.0,39,0.00,,,0.00,,2013-04-03 06:22:00,
2013-04-03 02:32:00,32.0,14.0,30.36,NNE,18,0.0,0.0,47,0.00,,,0.00,,2013-04-03 06:32:00,
2013-04-03 02:42:00,32.0,14.0,30.36,NNE,18,0.0,0.0,47,0.00,,,0.00,,2013-04-03 06:42:00,
2013-04-03 02:52:00,32.0,14.0,30.36,NNE,18,0.0,0.0,47,0.00,,,0.00,,2013-04-03 06:52:00,
2013-04-03 03:02:00,32.0,14.0,30.37,North,7,0.0,0.0,46,0.00,,,0.00,,2013-04-03 07:02:00,
2013-04-03 03:12:00,32.0,14.0,30.37,North,7,0.0,0.0,46,0.00,,,0.00,,2013-04-03 07:12:00,
2013-04-03 03:23:00,32.0,14.0,30.37,NNE,30,0.0,0.0,47,0.00,,,0.00,,2013-04-03 07:23:00,
2013-04-03 03:33:00,31.0,13.0,30.37,NNE,32,0.0,3.0,47,0.00,,,0.00,,2013-04-03 07:33:00,
2013-04-03 03:42:00,31.0,13.0,30.37,NNE,32,0.0,3.0,47,0.00,,,0.00,,2013-04-03 07:42:00,
2013-04-03 03:52:00,31.0,13.0,30.37,NNE,20,0.0,0.0,47,0.00,,,0.00,,2013-04-03 07:52:00,
2013-04-03 04:12:00,31.0,13.0,30.37,NNE,20,0.0,0.0,47,0.00,,,0.00,,2013-04-03 08:12:00,
2013-04-03 04:22:00,30.0,12.0,30.37,NNE,20,0.0,0.0,47,0.00,,,0.00,,2013-04-03 08:22:00,
2013-04-03 04:32:00,29.0,12.0,30.37,NNE,20,0.0,0.0,48,0.00,,,0.00,,2013-04-03 08:32:00,
2013-04-03 04:42:00,29.0,12.0,30.37,NNE,20,0.0,0.0,48,0.00,,,0.00,,2013-04-03 08:42:00,
2013-04-03 04:52:00,29.0,12.0,30.37,NNE,20,0.0,0.0,48,0.00,,,0.00,,2013-04-03 08:52:00,
2013-04-03 05:02:00,29.0,12.0,30.37,NNE,20,0.0,0.0,48,0.00,,,0.00,,2013-04-03 09:02:00,
2013-04-03 05:12:00,29.0,12.0,30.37,NNE,20,0.0,0.0,48,0.00,,,0.00,,2013-04-03 09:12:00,
2013-04-03 05:22:00,29.0,12.0,30.37,NNE,20,0.0,0.0,48,0.00,,,0.00,,2013-04-03 09:22:00,
2013-04-03 05:33:00,30.0,13.0,30.37,NNE,20,0.0,0.0,48,0.00,,,0.00,,2013-04-03 09:33:00,
2013-04-03 05:43:00,30.0,13.0,30.37,NNE,20,0.0,0.0,48,0.00,,,0.00,,2013-04-03 09:43:00,
2013-04-03 05:53:00,29.0,12.0,30.38,NNE,20,0.0,0.0,48,0.00,,,0.00,,2013-04-03 09:53:00,
2013-04-03 06:03:00,29.0,12.0,30.38,NNE,20,0.0,0.0,49,0.00,,,0.00,,2013-04-03 10:03:00,
2013-04-03 06:12:00,29.0,12.0,30.38,NNE,20,0.0,0.0,49,0.00,,,0.00,,2013-04-03 10:12:00,
2013-04-03 06:22:00,28.0,12.0,30.38,NNE,20,0.0,0.0,50,0.00,,,0.00,,2013-04-03 10:22:00,
2013-04-03 06:33:00,28.0,13.0,30.38,NNE,20,0.0,0.0,52,0.00,,,0.00,,2013-04-03 10:33:00,
2013-04-03 06:43:00,28.0,13.0,30.38,NNE,20,0.0,0.0,52,0.00,,,0.00,,2013-04-03 10:43:00,
2013-04-03 06:52:00,28.0,13.0,30.38,NNE,20,0.0,0.0,53,0.00,,,0.00,,2013-04-03 10:52:00,
2013-04-03 07:02:00,27.0,12.0,30.38,NNE,20,0.0,0.0,53,0.00,,,0.00,,2013-04-03 11:02:00,
2013-04-03 07:12:00,27.0,12.0,30.38,NNE,20,0.0,0.0,53,0.00,,,0.00,,2013-04-03 11:12:00,
2013-04-03 07:23:00,28.0,13.0,30.38,NNE,20,0.0,0.0,53,0.00,,,0.00,,2013-04-03 11:23:00,
2013-04-03 07:32:00,28.0,14.0,30.39,NNE,20,0.0,0.0,54,0.00,,,0.00,,2013-04-03 11:32:00,
2013-04-03 07:42:00,28.0,14.0,30.39,NNE,20,0.0,0.0,54,0.00,,,0.00,,2013-04-03 11:42:00,
2013-04-03 07:52:00,28.0,14.0,30.40,NNE,20,0.0,0.0,54,0.00,,,0.00,,2013-04-03 11:52:00,
2013-04-03 08:02:00,27.0,14.0,30.42,NNE,20,0.0,0.0,57,0.00,,,0.00,,2013-04-03 12:02:00,
2013-04-03 08:13:00,27.0,14.0,30.42,NNE,20,0.0,0.0,57,0.00,,,0.00,,2013-04-03 12:13:00,
2013-04-03 08:22:00,27.0,14.0,30.42,NNE,20,0.0,0.0,57,0.00,,,0.00,,2013-04-03 12:22:00,
2013-04-03 08:33:00,27.0,14.0,30.42,NNE,20,0.0,0.0,58,0.00,,,0.00,,2013-04-03 12:33:00,
2013-04-03 08:42:00,27.0,14.0,30.42,NNE,20,0.0,0.0,58,0.00,,,0.00,,2013-04-03 12:42:00,
2013-04-03 08:52:00,28.0,15.0,30.43,NNE,19,0.0,3.0,58,0.00,,,0.00,,2013-04-03 12:52:00,
2013-04-03 09:02:00,30.0,16.0,30.45,NNE,20,0.0,0.0,55,0.00,,,0.00,,2013-04-03 13:02:00,
2013-04-03 09:12:00,30.0,16.0,30.45,NNE,20,0.0,0.0,55,0.00,,,0.00,,2013-04-03 13:12:00,
2013-04-03 09:22:00,31.0,16.0,30.46,North,8,2.0,0.0,53,0.00,,,0.00,,2013-04-03 13:22:00,
2013-04-03 09:32:00,33.0,16.0,30.47,North,0,0.0,0.0,50,0.00,,,0.00,,2013-04-03 13:32:00,
2013-04-03 09:42:00,33.0,16.0,30.47,North,0,0.0,0.0,50,0.00,,,0.00,,2013-04-03 13:42:00,
2013-04-03 09:52:00,33.0,16.0,30.48,ENE,71,1.0,5.0,49,0.00,,,0.00,,2013-04-03 13:52:00,
2013-04-03 10:02:00,35.0,17.0,30.49,NNE,18,1.0,5.0,47,0.00,,,0.00,,2013-04-03 14:02:00,
2013-04-03 10:12:00,35.0,17.0,30.49,NNE,18,1.0,5.0,47,0.00,,,0.00,,2013-04-03 14:12:00,
2013-04-03 10:22:00,36.0,17.0,30.48,NE,49,1.0,6.0,46,0.00,,,0.00,,2013-04-03 14:22:00,
2013-04-03 10:32:00,37.0,17.0,30.49,NNE,21,1.0,6.0,43,0.00,,,0.00,,2013-04-03 14:32:00,
2013-04-03 10:42:00,37.0,17.0,30.49,NNE,21,1.0,6.0,43,0.00,,,0.00,,2013-04-03 14:42:00,
2013-04-03 10:52:00,38.0,15.0,30.49,ESE,111,3.0,5.0,39,0.00,,,0.00,,2013-04-03 14:52:00,
2013-04-03 11:02:00,39.0,16.0,30.50,ESE,104,6.0,7.0,38,0.00,,,0.00,,2013-04-03 15:02:00,
2013-04-03 11:12:00,39.0,16.0,30.50,ESE,104,6.0,7.0,38,0.00,,,0.00,,2013-04-03 15:12:00,
2013-04-03 11:23:00,39.0,16.0,30.50,ESE,104,6.0,7.0,38,0.00,,,0.00,,2013-04-03 15:23:00,
2013-04-03 11:33:00,40.0,15.0,30.49,North,2,2.0,3.0,36,0.00,,,0.00,,2013-04-03 15:33:00,
2013-04-03 11:42:00,40.0,15.0,30.49,North,2,2.0,3.0,36,0.00,,,0.00,,2013-04-03 15:42:00,
2013-04-03 11:53:00,40.0,15.0,30.49,NE,47,1.0,9.0,35,0.00,,,0.00,,2013-04-03 15:53:00,
2013-04-03 12:03:00,41.0,15.0,30.50,NNE,24,2.0,9.0,34,0.00,,,0.00,,2013-04-03 16:03:00,
2013-04-03 12:13:00,41.0,15.0,30.50,NNE,24,2.0,9.0,34,0.00,,,0.00,,2013-04-03 16:13:00,
2013-04-03 12:24:00,41.0,13.0,30.49,NE,42,1.0,0.0,32,0.00,,,0.00,,2013-04-03 16:24:00,
2013-04-03 12:33:00,42.0,16.0,30.49,North,356,8.0,8.0,34,0.00,,,0.00,,2013-04-03 16:33:00,
2013-04-03 12:43:00,42.0,16.0,30.49,North,356,8.0,8.0,34,0.00,,,0.00,,2013-04-03 16:43:00,
2013-04-03 12:52:00,42.0,15.0,30.49,North,10,7.0,9.0,33,0.00,,,0.00,,2013-04-03 16:52:00,
2013-04-03 13:03:00,43.0,17.0,30.47,NE,48,6.0,7.0,34,0.00,,,0.00,,2013-04-03 17:03:00,
2013-04-03 13:13:00,43.0,17.0,30.47,NE,48,6.0,7.0,34,0.00,,,0.00,,2013-04-03 17:13:00,
2013-04-03 13:23:00,43.0,15.0,30.47,East,81,6.0,10.0,32,0.00,,,0.00,,2013-04-03 17:23:00,
2013-04-03 13:34:00,44.0,16.0,30.47,North,10,0.0,8.0,32,0.00,,,0.00,,2013-04-03 17:34:00,
2013-04-03 13:46:00,44.0,16.0,30.47,North,10,0.0,8.0,32,0.00,,,0.00,,2013-04-03 17:46:00,
2013-04-03 13:53:00,44.0,15.0,30.47,NNE,32,6.0,7.0,30,0.00,,,0.00,,2013-04-03 17:53:00,
2013-04-03 14:02:00,44.0,14.0,30.46,North,0,1.0,8.0,29,0.00,,,0.00,,2013-04-03 18:02:00,
2013-04-03 14:13:00,44.0,14.0,30.46,North,0,1.0,8.0,29,0.00,,,0.00,,2013-04-03 18:13:00,
2013-04-03 14:23:00,45.0,16.0,30.45,NNE,21,7.0,9.0,31,0.00,,,0.00,,2013-04-03 18:23:00,
2013-04-03 14:33:00,45.0,13.0,30.44,NNE,17,10.0,14.0,27,0.00,,,0.00,,2013-04-03 18:33:00,
2013-04-03 14:43:00,45.0,13.0,30.44,NNE,17,10.0,14.0,27,0.00,,,0.00,,2013-04-03 18:43:00,
2013-04-03 14:52:00,45.0,15.0,30.45,ENE,57,2.0,10.0,29,0.00,,,0.00,,2013-04-03 18:52:00,
2013-04-03 15:03:00,46.0,14.0,30.44,North,10,8.0,12.0,27,0.00,,,0.00,,2013-04-03 19:03:00,
2013-04-03 15:12:00,46.0,14.0,30.44,North,10,8.0,12.0,27,0.00,,,0.00,,2013-04-03 19:12:00,
2013-04-03 15:22:00,46.0,14.0,30.44,North,351,6.0,9.0,27,0.00,,,0.00,,2013-04-03 19:22:00,
2013-04-03 15:32:00,46.0,12.0,30.45,NE,45,5.0,8.0,25,0.00,,,0.00,,2013-04-03 19:32:00,
2013-04-03 15:42:00,46.0,12.0,30.45,NE,45,5.0,8.0,25,0.00,,,0.00,,2013-04-03 19:42:00,
2013-04-03 15:52:00,46.0,12.0,30.45,NE,49,6.0,6.0,25,0.00,,,0.00,,2013-04-03 19:52:00,
2013-04-03 16:02:00,47.0,11.0,30.45,East,100,6.0,12.0,23,0.00,,,0.00,,2013-04-03 20:02:00,
2013-04-03 16:12:00,47.0,11.0,30.45,East,100,6.0,12.0,23,0.00,,,0.00,,2013-04-03 20:12:00,
2013-04-03 16:23:00,47.0,10.0,30.45,ENE,67,5.0,7.0,22,0.00,,,0.00,,2013-04-03 20:23:00,
2013-04-03 16:33:00,48.0,12.0,30.45,North,0,8.0,10.0,23,0.00,,,0.00,,2013-04-03 20:33:00,
2013-04-03 16:42:00,48.0,12.0,30.45,North,0,8.0,10.0,23,0.00,,,0.00,,2013-04-03 20:42:00,
2013-04-03 16:52:00,47.0,10.0,30.45,North,10,6.0,10.0,22,0.00,,,0.00,,2013-04-03 20:52:00,
2013-04-03 17:03:00,49.0,12.0,30.45,NNE,20,2.0,7.0,22,0.00,,,0.00,,2013-04-03 21:03:00,
2013-04-03 17:12:00,49.0,12.0,30.45,NNE,20,2.0,7.0,22,0.00,,,0.00,,2013-04-03 21:12:00,
2013-04-03 17:22:00,49.0,12.0,30.45,NNE,32,0.0,5.0,22,0.00,,,0.00,,2013-04-03 21:22:00,
2013-04-03 17:33:00,49.0,12.0,30.44,North,3,0.0,0.0,22,0.00,,,0.00,,2013-04-03 21:33:00,
2013-04-03 17:42:00,49.0,12.0,30.44,North,3,0.0,0.0,22,0.00,,,0.00,,2013-04-03 21:42:00,
2013-04-03 17:52:00,50.0,13.0,30.45,NE,36,6.0,8.0,22,0.00,,,0.00,,2013-04-03 21:52:00,
2013-04-03 18:02:00,49.0,12.0,30.44,East,101,2.0,5.0,22,0.00,,,0.00,,2013-04-03 22:02:00,
2013-04-03 18:12:00,49.0,12.0,30.44,East,101,2.0,5.0,22,0.00,,,0.00,,2013-04-03 22:12:00,
2013-04-03 18:22:00,49.0,12.0,30.43,NNE,26,3.0,6.0,22,0.00,,,0.00,,2013-04-03 22:22:00,
2013-04-03 18:33:00,48.0,11.0,30.43,NNE,24,3.0,3.0,22,0.00,,,0.00,,2013-04-03 22:33:00,
2013-04-03 18:42:00,48.0,11.0,30.43,NNE,24,3.0,3.0,22,0.00,,,0.00,,2013-04-03 22:42:00,
2013-04-03 18:52:00,48.0,11.0,30.42,East,83,1.0,0.0,22,0.00,,,0.00,,2013-04-03 22:52:00,
2013-04-03 19:02:00,47.0,10.0,30.42,ENE,69,3.0,5.0,22,0.00,,,0.00,,2013-04-03 23:02:00,
2013-04-03 19:12:00,47.0,10.0,30.42,ENE,69,3.0,5.0,22,0.00,,,0.00,,2013-04-03 23:12:00,
2013-04-03 19:22:00,47.0,10.0,30.42,NNE,17,0.0,0.0,22,0.00,,,0.00,,2013-04-03 23:22:00,
2013-04-03 19:33:00,46.0,10.0,30.41,North,0,0.0,0.0,23,0.00,,,0.00,,2013-04-03 23:33:00,
2013-04-03 19:42:00,46.0,10.0,30.41,North,0,0.0,0.0,23,0.00,,,0.00,,2013-04-03 23:42:00,
2013-04-03 19:53:00,46.0,10.0,30.41,ENE,77,0.0,8.0,23,0.00,,,0.00,,2013-04-03 23:53:00,
2013-04-03 20:03:00,45.0,9.0,30.40,NE,40,0.0,0.0,23,0.00,,,0.00,,2013-04-04 00:03:00,
2013-04-03 20:12:00,45.0,9.0,30.40,NE,40,0.0,0.0,23,0.00,,,0.00,,2013-04-04 00:12:00,
2013-04-03 20:22:00,45.0,10.0,30.40,NNE,27,1.0,5.0,24,0.00,,,0.00,,2013-04-04 00:22:00,
2013-04-03 20:32:00,44.0,10.0,30.40,NE,54,0.0,0.0,25,0.00,,,0.00,,2013-04-04 00:32:00,
2013-04-03 20:43:00,44.0,10.0,30.40,NE,54,0.0,0.0,25,0.00,,,0.00,,2013-04-04 00:43:00,
2013-04-03 20:52:00,44.0,11.0,30.39,NNE,30,1.0,5.0,26,0.00,,,0.00,,2013-04-04 00:52:00,
2013-04-03 21:02:00,43.0,11.0,30.38,NE,53,0.0,3.0,27,0.00,,,0.00,,2013-04-04 01:02:00,
2013-04-03 21:12:00,43.0,11.0,30.38,NE,53,0.0,3.0,27,0.00,,,0.00,,2013-04-04 01:12:00,
2013-04-03 21:22:00,42.0,11.0,30.39,NE,48,0.0,0.0,28,0.00,,,0.00,,2013-04-04 01:22:00,
2013-04-03 21:32:00,42.0,12.0,30.38,NE,48,0.0,0.0,29,0.00,,,0.00,,2013-04-04 01:32:00,
2013-04-03 21:43:00,42.0,12.0,30.38,NE,48,0.0,0.0,29,0.00,,,0.00,,2013-04-04 01:43:00,
2013-04-03 21:52:00,41.0,12.0,30.39,NE,48,0.0,0.0,30,0.00,,,0.00,,2013-04-04 01:52:00,
2013-04-03 22:02:00,40.0,13.0,30.39,NE,48,0.0,0.0,32,0.00,,,0.00,,2013-04-04 02:02:00,
2013-04-03 22:12:00,40.0,13.0,30.39,NE,48,0.0,0.0,32,0.00,,,0.00,,2013-04-04 02:12:00,
2013-04-03 22:22:00,40.0,13.0,30.39,NE,48,0.0,5.0,32,0.00,,,0.00,,2013-04-04 02:22:00,
2013-04-03 22:32:00,40.0,14.0,30.40,North,7,0.0,0.0,34,0.00,,,0.00,,2013-04-04 02:32:00,
2013-04-03 22:42:00,40.0,14.0,30.40,North,7,0.0,0.0,34,0.00,,,0.00,,2013-04-04 02:42:00,
2013-04-03 22:52:00,40.0,14.0,30.40,North,7,0.0,0.0,34,0.00,,,0.00,,2013-04-04 02:52:00,
2013-04-03 23:02:00,39.0,14.0,30.40,North,7,0.0,0.0,35,0.00,,,0.00,,2013-04-04 03:02:00,
2013-04-03 23:12:00,39.0,14.0,30.40,North,7,0.0,0.0,35,0.00,,,0.00,,2013-04-04 03:12:00,
2013-04-03 23:22:00,39.0,14.0,30.41,North,7,0.0,0.0,36,0.00,,,0.00,,2013-04-04 03:22:00,
2013-04-03 23:33:00,39.0,15.0,30.42,North,7,0.0,0.0,37,0.00,,,0.00,,2013-04-04 03:33:00,
2013-04-03 23:45:00,39.0,15.0,30.42,North,7,0.0,0.0,37,0.00,,,0.00,,2013-04-04 03:45:00,
2013-04-03 23:53:00,39.0,15.0,30.41,North,7,0.0,0.0,37,0.00,,,0.00,,2013-04-04 03:53:00,